Probability
97 100 100 100 100 100 100 100 100 100 100 100 100 100 100 100 100 100 100 100 100 100 100 100 100 100 100 100 100 100 100 100 100 100 100 100 100 100 100 100 100 100 100
94 100 100 100 100 100 100 100 100 100 100 100 100 100 100 100 100 100 100 100 100 100 100 100 100 100 100 100 100 100 100 100 100 100 100 100 100 100 100 100 100 100 100
100 100 100 100 100 100 100 100 100 100 100 100 100 100 100 100 100 100 100 100 100 100 100 100 100 100 100 100 100 100 100 100 100 100 100 94 100 100 100 100 100 100 100
100 100 100 100 100 100 100 100 100 100 100 100 100 100 100 100 100 100 100 100 100 100 100 100 100 100 100 100 100 100 100 100 100 100 84 94 97 100 100 100 100 100 100
97 97 100 100 100 100 100 100 100 100 100 100 100 100 100 100 100 100 100 100 100 100 100 100 94 94 94 94 94 100 100 100 100 87 74 81 94 100 100 100 100 100 100
90 94 100 100 100 100 100 100 100 100 100 100 100 100 100 100 100 100 100 100 100 100 100 94 94 94 94 94 94 97 100 97 84 45 68 84 94 97 100 100 100 100 100
90 97 100 100 100 100 100 100 100 100 100 100 100 100 100 100 100 100 100 100 97 94 94 81 77 77 77 74 81 90 94 90 55 26 48 74 94 97 100 100 100 100 100
90 100 100 100 100 100 100 100 100 100 100 100 100 100 100 100 100 100 100 100 94 90 81 71 68 68 55 58 68 71 84 87 52 45 52 48 84 97 100 100 100 100 100
97 100 100 100 100 100 100 100 100 100 100 100 100 100 100 100 100 100 100 94 90 84 77 74 61 61 55 55 52 65 71 68 23 16 35 48 90 97 100 100 100 100 100
97 100 100 100 100 100 100 100 100 100 100 100 100 100 100 100 100 100 100 97 87 87 74 74 68 61 58 52 48 52 58 42 3 3 6 39 81 90 97 100 97 97 94
100 100 100 100 100 100 100 100 100 100 100 100 100 100 100 100 100 100 97 97 94 87 81 77 68 65 68 65 77 81 61 16 3 0 0 42 77 90 94 97 94 90 94
100 97 97 97 97 100 100 100 100 100 100 100 100 100 94 74 77 97 97 100 97 97 90 87 77 71 65 35 23 48 32 16 3 0 0 55 90 94 94 90 94 94 94
97 97 94 90 90 84 90 97 90 90 90 74 90 90 65 39 42 77 71 100 94 94 65 61 71 61 42 16 10 3 6 10 0 3 10 77 84 94 90 87 97 90 84
77 87 87 84 71 65 71 71 55 55 55 39 52 52 23 16 32 29 42 58 48 45 29 13 6 19 19 13 10 3 0 0 0 0 13 77 81 84 87 90 81 81 87
65 74 84 61 58 52 48 52 55 42 35 26 45 42 6 16 29 23 26 23 13 10 3 6 6 10 6 3 3 3 0 3 6 3 16 77 77 87 90 74 71 77 81
42 55 58 48 45 48 48 52 52 39 26 29 61 58 39 23 16 16 13 10 6 13 13 6 6 3 3 3 3 3 0 0 3 6 13 29 55 68 68 52 55 61 61
39 48 58 58 48 45 45 52 61 68 39 26 55 55 52 32 19 16 19 13 3 3 13 10 6 6 6 3 3 0 0 0 0 0 3 3 16 32 45 45 55 55 48
48 55 55 71 65 61 48 48 68 61 52 48 48 39 32 35 19 16 19 23 6 10 6 6 3 0 0 0 0 0 0 0 0 0 3 3 3 3 13 19 32 32 35
35 48 55 74 74 61 55 55 61 58 45 45 42 39 42 35 29 19 23 10 6 6 6 6 3 0 3 3 3 0 0 0 0 0 0 0 0 0 0 3 13 19 19
32 45 61 55 52 58 58 58 48 35 35 23 19 19 19 26 29 13 6 6 3 3 3 3 3 0 0 0 0 0 0 0 0 0 0 0 0 0 0 0 0 0 16
35 39 39 48 55 55 65 48 35 26 23 19 16 13 10 13 13 6 10 3 3 3 3 3 0 0 0 0 0 0 0 0 0 0 0 0 0 0 0 0 0 0 0
23 26 26 32 39 48 42 32 23 23 19 13 6 3 3 6 6 3 0 0 0 0 0 0 0 0 0 0 0 0 0 0 0 0 0 0 0 0 0 0 0 0 0
16 19 23 23 26 26 19 19 23 19 13 10 3 3 3 3 3 3 0 0 0 0 0 0 0 0 0 0 0 0 0 0 0 0 0 0 0 0 0 0 0 0 0
16 19 19 23 23 19 13 6 13 16 10 6 3 3 3 3 3 3 3 0 0 0 0 0 0 0 0 0 0 0 0 0 0 0 0 0 0 0 0 0 0 0 0
10 10 10 10 13 10 10 6 3 0 3 3 3 3 3 3 3 3 0 0 0 0 0 0 0 0 0 0 0 0 0 0 0 0 0 0 0 0 0 0 0 0 0
10 10 10 10 10 6 0 0 0 0 0 3 3 3 0 0 0 0 0 0 0 0 0 0 0 0 0 0 0 0 0 0 0 0 0 0 0 0 0 0 0 0 0
Height
5903 5903 5904 5905 5906 5906 5907 5908 5908 5909 5910 5910 5910 5911 5911 5911 5911 5911 5911 5910 5910 5909 5908 5907 5906 5906 5905 5904 5904 5903 5903 5902 5902 5901 5900 5899 5898 5897 5896 5896 5895 5894 5893
5902 5902 5903 5904 5904 5905 5906 5906 5907 5908 5908 5909 5909 5910 5910 5910 5910 5910 5909 5909 5909 5908 5907 5906 5905 5905 5904 5904 5903 5902 5901 5901 5901 5900 5899 5898 5897 5896 5895 5894 5893 5893 5892
5900 5901 5901 5902 5903 5904 5904 5905 5906 5906 5907 5908 5908 5909 5909 5909 5909 5909 5908 5908 5907 5907 5906 5905 5904 5904 5903 5903 5902 5901 5901 5900 5899 5898 5898 5897 5896 5895 5894 5893 5892 5892 5891
5899 5899 5900 5900 5901 5902 5903 5903 5904 5905 5906 5906 5907 5907 5908 5908 5907 5907 5907 5907 5906 5905 5905 5904 5903 5903 5903 5902 5901 5900 5900 5899 5898 5897 5896 5895 5894 5893 5892 5892 5891 5891 5890
5898 5898 5898 5898 5899 5900 5901 5901 5902 5903 5904 5905 5905 5906 5906 5906 5906 5906 5906 5905 5905 5904 5904 5903 5902 5902 5901 5901 5900 5899 5898 5898 5897 5896 5895 5894 5893 5892 5891 5891 5890 5889 5889
5896 5896 5896 5897 5897 5898 5898 5899 5900 5901 5902 5903 5903 5904 5904 5904 5904 5904 5904 5904 5904 5903 5903 5902 5901 5901 5900 5900 5899 5898 5898 5897 5896 5895 5894 5893 5892 5892 5891 5890 5889 5888 5887
5893 5894 5894 5894 5895 5895 5896 5897 5898 5899 5900 5901 5901 5902 5902 5902 5902 5902 5902 5902 5902 5902 5901 5901 5900 5900 5899 5899 5898 5897 5897 5896 5895 5894 5893 5892 5892 5891 5890 5889 5888 5887 5886
5890 5891 5892 5892 5892 5893 5893 5894 5895 5896 5897 5898 5899 5900 5900 5900 5900 5900 5900 5900 5900 5900 5900 5899 5899 5898 5898 5897 5897 5896 5896 5895 5894 5893 5893 5892 5891 5890 5889 5888 5887 5885 5884
5888 5888 5889 5889 5889 5890 5890 5891 5892 5893 5894 5895 5896 5897 5897 5897 5897 5898 5898 5898 5898 5898 5898 5897 5897 5896 5896 5895 5895 5895 5894 5894 5893 5892 5891 5890 5889 5889 5888 5886 5885 5884 5883
5885 5886 5886 5886 5886 5887 5887 5888 5889 5890 5891 5892 5893 5894 5894 5895 5895 5895 5895 5896 5896 5896 5895 5895 5895 5894 5894 5894 5893 5893 5893 5892 5892 5891 5890 5889 5888 5887 5886 5885 5883 5882 5881
5883 5883 5883 5883 5883 5884 5884 5885 5886 5887 5888 5889 5890 5891 5891 5892 5892 5892 5893 5893 5893 5893 5893 5893 5893 5893 5892 5892 5891 5891 5891 5890 5890 5888 5887 5886 5885 5884 5883 5882 5881 5880 5879
5880 5881 5881 5881 5880 5880 5881 5881 5882 5883 5884 5885 5886 5887 5888 5888 5889 5890 5890 5891 5891 5891 5891 5891 5891 5891 5890 5890 5889 5889 5888 5887 5886 5885 5885 5884 5883 5882 5881 5880 5879 5878 5877
5877 5878 5878 5877 5877 5877 5878 5878 5879 5880 5881 5882 5883 5884 5885 5885 5886 5887 5887 5888 5888 5889 5889 5889 5889 5888 5888 5887 5886 5886 5885 5884 5883 5882 5881 5880 5879 5878 5877 5877 5876 5874 5873
5873 5874 5874 5874 5874 5874 5875 5875 5876 5877 5878 5879 5880 5881 5882 5882 5883 5884 5884 5885 5885 5886 5886 5886 5886 5885 5885 5884 5883 5882 5881 5881 5879 5878 5877 5876 5875 5874 5873 5872 5871 5870 5869
5868 5869 5870 5870 5870 5871 5872 5872 5873 5874 5874 5875 5877 5878 5878 5879 5880 5881 5881 5881 5882 5882 5883 5882 5882 5882 5881 5880 5879 5878 5877 5876 5875 5874 5873 5872 5871 5870 5869 5867 5866 5865 5864
5863 5864 5865 5866 5867 5867 5868 5869 5870 5870 5871 5871 5873 5874 5875 5875 5876 5877 5877 5878 5878 5878 5879 5879 5878 5878 5877 5876 5875 5874 5873 5871 5870 5869 5867 5866 5865 5864 5863 5862 5860 5859 5859
5859 5859 5861 5862 5862 5864 5864 5865 5866 5866 5867 5867 5869 5870 5871 5872 5872 5873 5874 5874 5874 5874 5874 5874 5874 5873 5872 5871 5870 5869 5867 5866 5865 5863 5862 5860 5859 5858 5857 5855 5854 5853 5852
5854 5855 5857 5857 5858 5859 5860 5861 5862 5862 5863 5863 5864 5865 5866 5867 5868 5868 5869 5870 5870 5869 5869 5869 5869 5868 5867 5866 5865 5863 5862 5861 5859 5858 5856 5854 5853 5852 5850 5849 5848 5847 5846
5847 5849 5851 5851 5853 5854 5856 5857 5858 5858 5859 5859 5859 5861 5862 5862 5863 5863 5864 5864 5864 5864 5864 5864 5863 5862 5861 5860 5859 5858 5856 5855 5854 5852 5850 5849 5847 5846 5844 5843 5842 5841 5839
5841 5844 5845 5845 5847 5849 5851 5852 5853 5854 5855 5855 5855 5856 5857 5857 5857 5857 5858 5858 5858 5858 5858 5858 5857 5857 5856 5854 5853 5852 5850 5849 5848 5846 5844 5842 5841 5839 5837 5836 5835 5833 5832
5835 5838 5839 5838 5840 5843 5845 5847 5848 5849 5850 5850 5850 5850 5851 5851 5851 5852 5852 5852 5853 5853 5852 5852 5851 5851 5850 5848 5847 5845 5844 5843 5841 5840 5838 5836 5834 5832 5830 5829 5827 5825 5823
5830 5832 5834 5836 5836 5838 5840 5842 5843 5844 5845 5845 5845 5845 5845 5845 5845 5846 5846 5846 5846 5846 5845 5845 5845 5844 5843 5841 5840 5839 5837 5836 5834 5833 5831 5828 5826 5824 5822 5820 5819 5817 5815
5825 5827 5829 5830 5830 5832 5834 5836 5838 5839 5839 5840 5840 5841 5840 5840 5840 5840 5840 5840 5839 5839 5839 5838 5838 5837 5836 5835 5833 5832 5831 5829 5827 5825 5823 5820 5818 5815 5813 5811 5809 5807 5804
5820 5822 5822 5822 5825 5827 5829 5831 5832 5833 5833 5834 5834 5835 5835 5835 5834 5834 5834 5833 5833 5832 5832 5831 5830 5830 5829 5828 5826 5825 5823 5821 5819 5817 5815 5812 5809 5806 5803 5801 5798 5796 5793
5816 5817 5818 5820 5821 5822 5824 5826 5827 5827 5827 5828 5828 5828 5828 5829 5828 5828 5828 5827 5826 5825 5825 5824 5823 5822 5821 5820 5818 5816 5814 5812 5810 5808 5806 5802 5799 5796 5793 5790 5787 5784 5781
5812 5813 5814 5815 5816 5817 5819 5820 5821 5821 5821 5821 5821 5821 5822 5823 5822 5821 5821 5820 5819 5818 5817 5816 5815 5814 5812 5811 5809 5807 5805 5803 5801 5798 5795 5792 5788 5785 5781 5778 5775 5771 5768
Wind_Speed
5 6 8 9 10 11 11 12 12 12 12 12 11 10 10 10 11 11 11 11 11 10 10 10 9 8 8 7 7 6 5 5 5 5 6 6 6 6 6 6 6 6 6
6 7 8 10 11 12 13 14 14 14 14 13 12 11 11 11 11 12 12 11 11 11 10 10 9 8 7 7 6 5 5 4 4 5 5 6 6 6 6 6 6 6 6
6 7 8 10 11 12 13 14 14 15 15 15 13 12 12 12 12 12 12 11 11 11 11 10 9 8 7 6 5 5 4 4 4 5 5 6 6 6 6 7 7 6 7
7 7 8 10 11 13 14 14 15 15 16 15 14 13 13 13 12 12 12 12 12 11 10 9 9 7 6 5 4 4 4 4 4 5 5 6 6 6 6 7 7 7 7
7 8 9 10 11 14 15 15 16 16 16 15 14 14 13 13 13 12 12 12 11 10 10 9 8 7 6 5 4 4 4 5 5 6 6 6 6 6 6 7 7 7 7
9 9 10 11 12 13 15 16 16 16 16 15 14 14 13 13 12 12 11 11 11 10 9 8 8 7 6 5 4 4 5 5 6 6 6 6 5 6 6 6 7 7 7
10 10 11 12 12 13 14 16 17 16 16 15 15 14 14 13 12 12 11 11 10 10 9 8 7 7 6 6 5 5 5 5 6 6 5 6 6 7 7 7 7 7 7
10 11 12 13 13 13 14 15 16 16 16 16 15 15 14 14 13 12 11 11 10 9 8 8 7 7 6 6 6 6 6 6 6 6 6 6 7 7 7 8 8 8 7
10 11 12 13 13 14 14 15 15 16 16 16 15 15 15 14 13 12 12 11 10 9 9 8 7 7 7 7 7 7 7 6 6 6 7 8 8 8 9 9 9 9 8
11 11 12 13 13 14 14 15 15 16 16 16 15 15 15 14 13 12 12 11 10 10 9 9 8 8 8 8 8 8 8 7 7 7 8 9 10 10 11 11 11 10 10
13 12 12 13 13 13 14 14 15 16 16 15 15 15 15 14 13 12 12 12 11 10 10 9 9 9 10 10 10 10 10 9 10 10 10 10 11 11 12 13 12 12 12
14 13 12 12 12 13 14 14 15 15 15 15 15 15 14 14 13 12 12 12 11 11 10 10 10 11 11 11 12 12 12 12 13 13 13 13 13 13 14 14 14 13 13
17 16 13 12 12 12 13 14 14 15 15 15 15 15 14 14 13 12 12 12 12 11 11 11 11 12 13 14 14 15 15 15 17 17 16 16 16 17 16 16 16 16 15
17 17 15 12 12 12 13 14 14 15 15 15 15 14 14 14 13 13 13 13 13 13 12 12 12 13 15 16 17 18 18 18 20 20 19 19 19 19 19 19 20 19 19
19 18 16 13 12 12 13 14 14 15 15 15 15 15 14 14 14 13 13 13 13 13 13 14 15 15 17 18 19 20 20 21 22 22 22 22 22 22 22 22 23 23 23
20 19 17 16 14 13 13 14 14 15 16 16 15 15 16 15 14 14 14 14 15 15 15 15 17 17 18 19 21 21 22 23 24 24 24 24 24 24 25 25 25 26 26
22 20 17 17 15 14 14 15 15 15 15 15 15 16 16 16 16 16 16 16 16 16 17 17 17 18 19 21 21 22 23 23 24 25 25 26 26 26 27 27 27 26 27
23 21 17 17 17 16 14 14 14 15 16 16 16 17 17 17 18 18 18 17 18 18 19 19 19 20 21 22 23 23 24 25 24 25 26 26 26 28 29 28 28 28 28
22 20 19 19 17 15 14 14 14 15 16 17 17 17 18 19 19 19 19 19 20 21 21 21 21 21 22 24 24 25 25 25 25 25 25 26 27 29 30 29 29 29 30
22 20 20 20 18 15 14 13 13 14 16 17 17 16 17 17 18 19 21 21 22 23 23 23 24 24 24 25 26 27 27 26 26 26 27 27 28 29 29 30 31 32 33
25 22 22 20 18 16 15 15 15 15 15 16 16 16 17 17 18 19 20 22 23 24 24 24 25 25 25 26 27 28 28 29 28 28 29 30 30 31 31 32 33 34 34
26 23 22 21 19 19 18 17 17 16 16 16 17 17 17 18 19 20 20 21 23 23 22 24 24 25 25 26 27 27 28 29 29 30 31 32 34 35 35 35 36 36 38
24 24 23 22 23 21 19 18 17 17 18 19 19 20 20 20 20 20 21 21 21 23 24 24 24 25 25 25 26 27 28 28 30 32 33 34 35 36 37 39 40 41 42
25 25 25 22 22 21 20 20 20 20 19 20 21 21 21 21 21 21 20 21 21 21 22 22 23 25 25 26 27 28 30 31 32 33 35 37 37 38 39 41 43 45 46
25 23 23 23 22 21 21 22 21 20 20 21 21 21 20 20 20 20 20 20 21 22 23 24 24 25 27 28 30 31 32 33 34 35 37 38 40 42 43 44 46 48 50
25 24 25 24 24 24 23 23 23 23 24 23 23 23 22 23 22 21 21 22 23 24 26 26 27 28 29 30 32 33 35 36 37 38 39 40 42 44 46 48 49 50 51
Wind_Direction
265 249 239 236 235 238 241 242 244 247 250 252 256 262 270 281 287 291 293 295 297 296 296 297 292 290 291 291 292 291 293 297 301 304 304 301 299 299 299 298 295 296 298
283 260 249 246 245 246 247 249 250 251 252 253 256 259 268 278 284 290 292 293 294 295 295 293 290 289 291 293 293 297 301 307 311 310 310 311 311 311 309 307 303 299 299
277 270 257 254 253 251 250 251 252 254 254 253 255 259 266 273 280 286 288 289 291 292 293 291 288 290 293 294 295 300 306 314 316 314 315 318 318 315 313 312 305 299 298
273 267 259 258 257 256 256 256 256 257 256 255 255 258 264 270 276 280 283 284 286 288 289 288 288 290 291 294 299 305 311 317 314 312 314 316 318 316 311 308 304 300 295
277 269 267 268 265 261 259 259 260 259 258 256 255 257 261 268 273 276 278 280 281 283 284 285 286 286 286 292 300 306 311 316 314 312 315 314 317 316 310 304 298 294 290
274 275 275 273 270 267 262 261 262 261 259 257 257 257 260 266 269 271 274 277 278 278 279 281 282 280 281 288 294 298 307 315 314 313 315 318 320 317 310 304 296 290 287
272 273 277 276 270 267 264 261 259 259 258 257 257 257 259 262 266 268 270 273 273 273 273 275 275 276 278 282 286 291 303 313 311 307 307 308 307 309 309 305 300 295 289
273 273 275 275 272 268 264 260 257 256 255 255 255 256 257 259 261 264 266 268 268 267 269 270 270 272 276 280 284 289 298 309 307 305 302 300 302 306 307 305 304 301 296
275 276 275 273 268 265 262 258 254 251 249 251 252 254 254 255 257 259 262 262 262 262 265 265 266 271 276 282 289 293 297 307 306 303 302 299 298 303 303 304 302 298 295
273 271 275 272 266 261 257 255 251 247 246 248 249 250 251 252 253 255 257 257 258 261 263 262 264 270 275 283 291 297 300 305 303 301 300 302 300 299 299 299 299 294 292
268 267 273 270 263 257 253 249 247 244 243 244 245 247 248 249 250 252 254 256 260 263 263 264 268 274 279 286 292 297 300 301 300 296 294 298 297 296 298 297 297 293 291
258 261 267 266 258 252 248 245 243 240 240 241 241 243 244 246 248 250 254 257 263 266 266 270 275 280 284 289 292 294 296 297 297 295 293 293 293 293 294 294 292 292 291
253 253 257 260 256 250 245 242 240 238 238 238 238 238 240 243 246 249 254 259 265 267 270 275 280 283 288 291 293 294 295 296 296 296 295 293 293 292 291 290 286 285 287
247 251 250 251 252 249 244 241 239 238 236 234 234 236 238 241 244 248 252 258 264 267 271 275 279 283 287 290 293 294 293 293 294 293 292 292 292 291 290 288 284 283 283
242 242 245 244 245 246 243 242 239 236 234 234 235 236 238 240 243 248 253 258 264 268 272 275 279 284 286 289 289 290 291 290 291 290 289 290 290 291 288 288 285 283 281
238 238 242 238 242 241 238 236 234 233 234 235 235 236 235 236 241 248 252 259 264 268 271 276 280 283 287 290 291 290 289 289 289 289 288 288 287 287 288 287 286 284 280
252 246 232 233 233 235 235 234 232 232 233 235 237 239 236 238 242 246 251 258 263 268 272 276 279 281 286 288 289 291 289 290 291 289 288 289 286 285 287 286 285 283 280
254 240 239 231 226 227 232 233 237 237 236 238 240 240 241 245 247 249 253 257 263 269 273 275 278 279 281 283 287 288 288 288 290 290 288 288 287 286 286 286 285 281 278
252 242 242 229 227 225 227 233 241 242 241 241 243 245 250 252 252 254 255 259 265 270 272 275 277 277 280 281 284 286 287 286 286 288 288 288 288 286 285 284 283 281 279
249 251 247 238 236 228 229 234 238 242 241 244 248 250 253 254 254 257 258 262 267 271 272 274 275 276 280 281 282 283 283 283 284 284 286 287 287 285 282 281 281 279 280
252 252 250 245 235 230 232 234 238 239 241 246 250 254 256 260 263 264 266 269 272 274 273 274 276 276 278 280 282 283 283 281 280 282 283 284 285 284 282 280 280 279 279
252 248 251 247 239 237 237 241 244 247 247 250 254 257 261 266 270 270 274 275 274 274 273 273 276 276 277 280 281 282 283 281 279 281 282 283 283 282 281 280 279 278 279
247 245 247 248 243 242 244 247 251 252 256 256 258 260 264 268 273 277 278 279 277 276 275 277 276 277 278 280 281 280 280 281 281 282 283 284 285 284 283 281 279 279 279
253 253 251 249 252 250 251 252 255 256 262 262 262 263 267 270 273 280 282 278 277 278 279 280 279 276 277 280 280 280 280 280 281 283 283 283 283 283 284 283 282 281 281
256 255 257 259 258 252 253 255 256 262 269 271 268 269 277 280 282 286 288 285 283 282 282 282 281 280 280 282 282 282 283 282 282 283 284 284 283 284 284 284 283 283 283
259 259 261 263 261 258 257 259 262 267 272 275 275 278 281 283 284 287 290 290 289 286 284 285 285 283 283 284 284 283 284 283 284 285 285 284 284 284 285 285 284 283 283